{"data":{"norad_id":63055,"intl_designator":"2025-035D","name":"STARLINK-11558 [DTC]","alt_names":[],"object_type":"PAYLOAD","status":"ACTIVE","operator":null,"country":"US","launch_date":"2025-02-21","launch_site_code":"AFETR","launch_vehicle":null,"mission":null,"orbit_class":"UNKNOWN","rcs_meters":null,"size_class":null,"mass_kg":null,"dimensions":null,"purposes":["comms"],"wikipedia_slug":null,"has_3d_model":false,"image_url":null,"decayed_at":null,"tle_current":{"epoch":"2026-09-21T09:14:41.508096Z","epoch_age_seconds":88925,"freshness":"FRESH","line1":"1 63055U 25035D   26264.38520264  .00105105  00000+0  81148-3 0  9990","line2":"2 63055  42.9994 275.3120 0001736 260.2319  99.8352 15.70863223 91898","mean_motion":15.70863223,"eccentricity":0.0001736,"inclination_deg":42.9994,"raan_deg":275.312,"arg_perigee_deg":260.2319,"mean_anomaly_deg":99.8352,"bstar":0.00081148,"rev_number":9189,"period_min":91.669343257647,"perigee_km":355.25956610282,"apogee_km":357.59780730925,"semimajor_km":6734.565686706,"source":"CELESTRAK","updated_at":"2026-09-22T09:00:49.750009Z"}}}